www.pogodaiklimat.ru

Погода и климат >> Архив погоды >> Таиланд >> Хуахин


ПОГОДА в Хуахине

  • Прогноз погоды в Хуахине
  • Монитор погоды в Хуахине

АРХИВ ПОГОДЫ в Хуахине

Время (UTC), дата Ветер
(напр.,м/с)
 
Видим.   Явления Облачность Т
(С)
Тd
(С)
f
(%)
Тe
(С)
Тes
(С)
Комфортность P
(гПа)
Po
(гПа)
Тmin
(С)
Tmax
(С)
R
(мм)
R24
(мм)
S
(см)
03 10.07 штиль 0 10 км 4/1 600 м
[Cu hum Cs]
+31.3 +24.6 68 +44 +61 опасность
перегрева
1010.1 1009.4
06 10.07 ЮВ 6 10 км 5/3
[Cu med, cong Cs]
+31.8 +25.3 69 +46 +52 опасность
перегрева
1008.7 1008.0
09 10.07 В 7 10 км 3/1 600 м
[Cu med, cong Cs]
+31.4 +26.2 74 +47 +49 опасность
перегрева
1006.9 1006.2
12 10.07 штиль 0 10 км 3/1 600 м
[Cu hum Cs]
+30.5 +26.3 78 +46 +46 опасность
перегрева
1007.6 1006.9 +33.4
15 10.07 штиль 0 10 км 3/0
[Cs]
+28.9 +23.7 74 +40 +40 очень
душно
1010.3 1009.6
18 10.07 штиль 0 10 км 3/0
[Cs]
+27.3 +23.0 77 +36 +36 очень
душно
1010.0 1009.3
21 10.07 штиль 0 10 км 3/0
[Cs]
+26.5 +22.8 80 +35 +35 очень
душно
1009.6 1008.9
00 11.07 штиль 0 10 км 8/1 600 м
[Cu med, cong Cs]
+25.7 +22.6 83 +34 +35 очень
душно
1010.6 1009.9 +25.4
03 11.07 штиль 0 10 км 6/1 600 м
[Cu med, cong Cs]
+31.4 +22.1 58 +40 +57 опасность
солнечного
удара
1011.8 1011.1
06 11.07 ЮВ 7 10 км 3/1 600 м
[Cu med, cong Cs]
+31.4 +23.3 62 +42 +47 опасность
перегрева
1010.6 1009.9
09 11.07 ЮВ 6 10 км 4/1 600 м
[Cu med, cong Cs]
+31.5 +24.4 66 +44 +47 опасность
перегрева
1009.1 1008.4
12 11.07 штиль 0 10 км 4/1 600 м
[Cu med, cong Cs]
+29.9 +25.2 76 +43 +43 опасность
перегрева
1009.5 1008.8 +32.0
15 11.07 штиль 0 10 км 3/0
[Cs]
+28.6 +25.3 82 +42 +42 опасность
перегрева
1011.0 1010.2
18 11.07 штиль 0 10 км 3/0
[Cs]
+26.9 +22.9 79 +36 +36 очень
душно
1010.8 1010.1
21 11.07 штиль 0 10 км 3/0
[Cs]
+26.5 +22.5 79 +35 +35 очень
душно
1009.9 1009.2
00 12.07 штиль 0 10 км 8/0
[Cs]
+26.0 +22.9 83 +35 +36 очень
душно
1010.9 1010.2 +24.9
03 12.07 В 5 10 км 6/0
[Cs]
+31.2 +23.7 64 +42 +49 опасность
перегрева
1011.6 1010.9
06 12.07 ЮВ 8 10 км 8/1 600 м
[Cu med, cong Cs]
+32.0 +23.3 60 +43 +45 опасность
перегрева
1010.0 1009.3
09 12.07 ЮВ 6 10 км 5/0
[Cs]
+31.9 +22.6 58 +42 +44 опасность
перегрева
1008.0 1007.3
12 12.07 ЮВ 2 10 км 4/0
[Cs]
+30.5 +24.8 72 +44 +44 опасность
перегрева
1008.2 1007.5 +32.4
15 12.07 З 3 10 км 3/0
[Cs]
+29.5 +23.6 71 +40 +40 очень
душно
1010.3 1009.6
18 12.07 штиль 0 10 км 3/0
[Cs]
+28.1 +22.7 73 +37 +37 очень
душно
1009.9 1009.2
21 12.07 штиль 0 10 км 3/0
[Cs]
+26.4 +22.7 80 +35 +35 очень
душно
1009.6 1008.8
00 13.07 штиль 0 10 км 8/3 600 м
[Sc Ac und Cs]
+26.0 +21.6 77 +33 +34 очень
душно
1010.4 1009.7 +25.3
03 13.07 штиль 0 10 км 4/1 600 м
[Sc Cs]
+31.4 +22.8 60 +41 +58 опасность
перегрева
1010.9 1010.2
06 13.07 ЮВ 10 10 км 8/0
[Cs]
+32.0 +23.0 59 +42 +43 опасность
перегрева
1008.8 1008.1
09 13.07 ЮВ 8 10 км 5/1 600 м
[Cu med, cong Cs]
+32.1 +23.1 59 +42 +44 опасность
перегрева
1006.4 1005.7
12 13.07 З 4 10 км 6/0
[Cs]
+32.1 +20.0 49 +38 +38 очень
душно
1007.0 1006.3 +33.8
15 13.07 штиль 0 10 км 3/0
[Cs]
+29.2 +19.9 57 +35 +35 очень
душно
1009.9 1009.2
18 13.07 штиль 0 10 км 5/0
[Ac trans Cs]
+27.1 +21.4 71 +34 +34 очень
душно
1009.2 1008.5
21 13.07 штиль 0 10 км 3/0
[Cs]
+25.9 +21.5 77 +33 +33 очень
душно
1008.1 1007.4
00 14.07 штиль 0 10 км пыль 4/0
[Ac trans Cs]
+25.8 +21.6 78 +33 +34 очень
душно
1008.3 1007.6 +24.0
03 14.07 З 4 10 км 3/0
[Cs]
+33.2 +21.4 50 +41 +51 опасность
перегрева
1008.6 1007.9
06 14.07 ЮВ 7 10 км 4/3 600 м
[Cu med, cong Cs]
+32.7 +24.6 62 +45 +49 опасность
перегрева
1007.2 1006.5
09 14.07 ЮВ 5 10 км 4/3 600 м
[Cu med, cong Cs]
+31.7 +25.0 68 +45 +48 опасность
перегрева
1005.2 1004.5
12 14.07 З 6 10 км 4/1 600 м
[Cu med, cong Cs]
+32.0 +21.7 55 +41 +41 опасность
перегрева
1005.5 1004.8 +36.1
15 14.07 штиль 0 10 км 3/0
[Cs]
+29.7 +22.3 65 +39 +39 очень
душно
1008.1 1007.4
18 14.07 штиль 0 10 км 3/0
[Cs]
+27.5 +22.6 75 +36 +36 очень
душно
1007.5 1006.8
21 14.07 штиль 0 10 км 3/0
[Cs]
+26.7 +22.9 80 +36 +36 очень
душно
1005.9 1005.2
00 15.07 штиль 0 10 км 3/1 600 м
[Cu med, cong Cs]
+26.8 +23.1 80 +36 +37 очень
душно
1006.4 1005.6 +26.1
03 15.07 штиль 0 10 км 4/3 600 м
[Cu med, cong Cs]
+32.8 +23.0 56 +43 +57 опасность
перегрева
1007.2 1006.5
06 15.07 ЮВ 5 10 км 6/3 600 м
[Cu med, cong Ac trans Cs]
+32.7 +24.6 62 +45 +51 опасность
перегрева
1006.1 1005.4
09 15.07 З 6 10 км {дождь} 8/3 600 м
[Cu med, cong Ac trans Cs]
+30.1 +23.7 69 +41 +43 опасность
перегрева
1004.9 1004.2 21
12 15.07 З 6 10 км {дождь} 10/3 600 м
[Cu med, cong Ac As Cs]
+30.0 +22.0 62 +39 +39 очень
душно
1004.5 1003.8 +34.8 21
15 15.07 штиль 0 10 км 4/0
[Ac trans Cs]
+28.3 +23.2 74 +38 +38 очень
душно
1007.0 1006.3
18 15.07 штиль 0 10 км 3/0
[Cs]
+27.0 +23.5 81 +37 +37 очень
душно
1006.7 1006.0
21 15.07 штиль 0 10 км 3/0
[Cs]
+26.5 +23.3 83 +36 +36 очень
душно
1005.8 1005.1
00 16.07 ЮЗ 2 10 км 8/1 600 м
[Cu hum Ac trans Cs]
+27.3 +23.8 81 +37 +38 очень
душно
1006.4 1005.6 +25.8
03 16.07 ЮЗ 3 10 км 8/1 600 м
[Cu med, cong Ac trans Cs]
+31.2 +24.0 66 +43 +50 опасность
перегрева
1007.0 1006.3
06 16.07 З 6 10 км 6/3 600 м
[Cu med, cong Ac trans Cs]
+30.3 +25.0 73 +43 +48 опасность
перегрева
1005.6 1004.9
09 16.07 З 6 10 км 6/3 600 м
[Cu med, cong Cs]
+35.0 +22.7 49 +45 +47 опасность
перегрева
1003.3 1002.6
12 16.07 З 3 10 км 9/3 600 м
[Sc Ac und Cs]
+31.7 +22.0 56 +40 +40 очень
душно
1003.8 1003.1 +36.0
15 16.07 штиль 0 10 км 8/0
[Ac trans Cs]
+29.2 +23.4 71 +40 +40 очень
душно
1006.1 1005.4
18 16.07 ЮЗ 3 10 км 8/0
[Ac und Cs]
+28.5 +23.4 74 +39 +39 очень
душно
1006.2 1005.5
21 16.07 штиль 0 10 км 8/0
[Cs]
+28.0 +23.0 74 +37 +37 очень
душно
1004.7 1004.0

 

Местоположение метеостанции Хуахин (Таиланд): широта 12.58 долгота 99.95 высота над уровнем моря 6 м.

В архиве по умолчанию представлена погода в Хуахине за последнюю неделю. Архивные данные за месяц целиком и за предыдущие месяцы, начиная с января 2011 года, Вы можете получить, выбрав интересующий диапазон дат из раскрывающегося списка и нажав кнопку "Ввод!".


*Определитесь, кто Вы:
робот инопланетянин человек

Внимание! Время в таблицах - всемирное. Для получения местного времени необходимо прибавить поправку, которая равна 7 ч.

Смотрите также архив погоды в соседних городах и на ближайших метеорологических станциях:

Погода в Нонг Флуб Агромете (Таиланд) (24 км)
Погода в Пхетчабури (Таиланд) (65 км)
Погода в Прачуап Хирихан (Таиланд) (86 км)
Погода в Самутсонгкхраме (Таиланд) (93 км)
Погода в Паттайе (Таиланд) (106 км)
Погода в Саттахипе (Таиланд) (112 км)
Погода на Ко Сичан (Таиланд) (113 км)
Погода в Бангкок Пилот (Таиланд) (113 км)
Погода в Хуайпонг Агромете (Таиланд) (129 км)
Погода в Самутрудкан Агромете (Таиланд) (136 км)

Пояснения к столбцам:

Ветер - указаны скорость ветра в м/с - средняя за 10 мин, порывы в срок и между сроками (в фигурных скобках) и направление, откуда дует ветер: С - северный, СВ - северо-восточный, В - восточный, ЮВ - юго-восточный, Ю - южный, ЮЗ - юго-западный, З - западный, СЗ - северо-западный.
Видимость - горизонтальная дальность видимости в метрах или километрах. При видимости от 1 до 10 км при отсутствии осадков обычно наблюдается дымка, при ухудшении видимости до 1 км и менее - туман. В сухую погоду видимость может ухудшаться дымом, пылью или мглою.
Явления - указаны атмосферные явления, наблюдавшиеся в срок или в последний час перед сроком; фигурными скобками обозначены явления, наблюдавшиеся между сроками (за 1-3 часа до срока); квадратными скобками обозначены град или гололедные отложения с указанием их диаметра в мм.
Облачность - указаны через наклонную черту общая и нижняя облачность в баллах и высота нижней границы облаков в метрах; квадратными скобками обозначены формы облаков: Ci - перистые, Cs - перисто-слоистые, Cc - перисто-кучевые, Ac - высококучевые, As - высокослоистые, Sc - слоисто-кучевые, Ns - слоисто-дождевые, Cu - кучевые, Cb - кучево-дождевые. Подробнее классификацию облаков см. в Атласе облаков (PDF).
T - Температура воздуха - температура, измеренная на высоте 2 м над землей.
Td - Температура точки росы - температура, при понижении до которой содержащийся в воздухе водяной пар достигнет насыщения.
f - Относительная влажность воздуха - влажноcть воздуха, измеренная на высоте 2 м над землей.
Te - Эффективная температура - температура, которую ощущает одетый по сезону человек в тени. Характеристика душности погоды. При расчете учитывается влияние влажности воздуха и скорости ветра на теплоощущения человека.
Tes - Эффективная температура на солнце - температура, которую ощущает человек, с поправкой на солнечный нагрев. Характеристика знойности погоды. Зависит от высоты солнца над горизонтом, облачности и скорости ветра. Ночью, в пасмурную погоду, а также при ветре 12 м/с и более поправка равна нулю.
P - Атмосферное давление - приведенное к уровню моря атмосферное давление.
Po - Атмосферное давление - измеренное на уровне метеостанции атмосферное давление.
Tmin - Минимальная температура - минимум температуры воздуха на высоте 2 м над землей.
Tmax - Максимальная температура - максимум температуры воздуха на высоте 2 м над землей.
R - Количество осадков - Количество выпавших осадков за период времени, мм. При наведении курсора мыши на число - период времени, за который выпало указанное количество осадков.
R24 - Количество осадков - Количество выпавших осадков за 24 часа, мм.
S - Снежный покров - Высота снежного покрова, см. При наведении курсора мыши на число - состояние снежного покрова и степень покрытия местности в баллах.